User: anonymous   Login
Location: Irma
(52.9170°N, 111.2330°W)
Time: 23:17:01
(UTC-06:00)
Language:

Cosmos 1633 Rocket - Orbit

View from above orbital plane
View from above orbital plane
View from above satellite
View from above satellite

Ground track
Ground track

The orbit data is extracted from the following two-line orbital elements,

1 15593U 85020B   15085.17365819  .00000493  00000-0  56355-4 0  9991
2 15593 082.5368 304.2627 0011075 201.3094 264.6750 14.83984864623639
Epoch (UTC): 26 March 2015 04:10:04
Eccentricity: 0.0011075
inclination: 82.5368°
perigee height: 609 km
apogee height: 624 km
right ascension of ascending node: 304.2627°
argument of perigee: 201.3094°
revolutions per day: 14.83984864
mean anomaly at epoch: 264.6750°
orbit number at epoch: 62363

The dashed part of the orbit path shows where the satellite is in the earth's shadow,  

DLR